Previsão horária em 3 internacional

Hoje, 17 Abril, Sábado

Tempo Temperatura Precipitação Vento Pressão Humidade
00:00 +18°C° 0 mm 2 m/s 752 mmHg 25%
01:00 +19°C° 0 mm 1 m/s 752 mmHg 27%
02:00 +17°C° 0 mm 2 m/s 752 mmHg 28%
03:00 +17°C° 0 mm 2 m/s 753 mmHg 28%
04:00 +17°C° 0 mm 2 m/s 753 mmHg 28%
05:00 +18°C° 0 mm 2 m/s 753 mmHg 26%
06:00 +18°C° 0 mm 2 m/s 753 mmHg 25%
07:00 +19°C° 0 mm 2 m/s 754 mmHg 23%
08:00 +22°C° 0 mm 1 m/s 754 mmHg 21%
09:00 +23°C° 0 mm 1 m/s 754 mmHg 19%
10:00 +25°C° 0 mm 1 m/s 754 mmHg 17%
11:00 +25°C° 0 mm 1 m/s 754 mmHg 15%
12:00 +26°C° 0 mm 1 m/s 754 mmHg 14%
13:00 +27°C° 0 mm 1 m/s 754 mmHg 13%
14:00 +27°C° 0 mm 2 m/s 754 mmHg 13%
15:00 +27°C° 0 mm 3 m/s 754 mmHg 13%
16:00 +27°C° 0 mm 3 m/s 754 mmHg 13%
17:00 +26°C° 0 mm 3 m/s 754 mmHg 14%
18:00 +25°C° 0 mm 2 m/s 754 mmHg 16%
19:00 +24°C° 0 mm 2 m/s 754 mmHg 17%
20:00 +23°C° 0 mm 2 m/s 754 mmHg 18%
21:00 +21°C° 0 mm 3 m/s 754 mmHg 19%
22:00 +21°C° 0 mm 3 m/s 754 mmHg 20%
23:00 +20°C° 0 mm 3 m/s 754 mmHg 22%

Amanhã, 18 Abril, Domingo

Tempo Temperatura Precipitação Vento Pressão Humidade
00:00 +19°C° 0 mm 3 m/s 754 mmHg 24%
01:00 +18°C° 0 mm 3 m/s 754 mmHg 25%
02:00 +18°C° 0 mm 3 m/s 754 mmHg 27%
03:00 +17°C° 0 mm 3 m/s 754 mmHg 30%
04:00 +16°C° 0 mm 3 m/s 754 mmHg 32%
05:00 +17°C° 0 mm 4 m/s 754 mmHg 31%
06:00 +18°C° 0 mm 4 m/s 754 mmHg 29%
07:00 +19°C° 0 mm 4 m/s 755 mmHg 28%
08:00 +20°C° 0 mm 4 m/s 755 mmHg 25%
09:00 +22°C° 0 mm 4 m/s 755 mmHg 22%
10:00 +25°C° 0 mm 5 m/s 755 mmHg 18%
11:00 +26°C° 0 mm 5 m/s 754 mmHg 19%
12:00 +26°C° 0 mm 6 m/s 754 mmHg 19%
13:00 +27°C° 0 mm 6 m/s 754 mmHg 19%
14:00 +27°C° 0 mm 7 m/s 754 mmHg 19%
15:00 +27°C° 0 mm 7 m/s 753 mmHg 18%
16:00 +27°C° 0 mm 8 m/s 753 mmHg 17%
17:00 +26°C° 0 mm 7 m/s 753 mmHg 19%
18:00 +24°C° 0 mm 6 m/s 753 mmHg 21%
19:00 +23°C° 0 mm 5 m/s 753 mmHg 23%
20:00 +22°C° 0 mm 4 m/s 753 mmHg 26%
21:00 +21°C° 0 mm 4 m/s 753 mmHg 28%
22:00 +20°C° 0 mm 4 m/s 753 mmHg 31%
23:00 +20°C° 0 mm 4 m/s 753 mmHg 32%

Depois de amanhã, 19 Abril, Segunda-feira

Tempo Temperatura Precipitação Vento Pressão Humidade
00:00 +19°C° 0 mm 3 m/s 753 mmHg 33%
01:00 +19°C° 0 mm 3 m/s 753 mmHg 34%
02:00 +19°C° 0 mm 3 m/s 753 mmHg 38%
03:00 +18°C° 0 mm 3 m/s 753 mmHg 42%
04:00 +18°C° 0 mm 3 m/s 753 mmHg 46%
05:00 +18°C° 0 mm 3 m/s 753 mmHg 46%
06:00 +19°C° 0 mm 3 m/s 753 mmHg 45%
07:00 +19°C° 0 mm 3 m/s 753 mmHg 44%
08:00 +21°C° 0 mm 3 m/s 753 mmHg 40%
09:00 +22°C° 0 mm 3 m/s 753 mmHg 35%
10:00 +23°C° 0 mm 4 m/s 753 mmHg 31%
11:00 +25°C° 0 mm 4 m/s 753 mmHg 29%
12:00 +25°C° 0 mm 5 m/s 753 mmHg 27%
13:00 +26°C° 0 mm 5 m/s 752 mmHg 24%
14:00 +26°C° 0 mm 5 m/s 752 mmHg 26%
15:00 +25°C° 0 mm 5 m/s 752 mmHg 27%
16:00 +25°C° 0 mm 5 m/s 752 mmHg 28%
17:00 +23°C° 0 mm 5 m/s 752 mmHg 31%
18:00 +22°C° 0 mm 6 m/s 752 mmHg 34%
19:00 +21°C° 0 mm 6 m/s 752 mmHg 37%
20:00 +20°C° 0 mm 6 m/s 752 mmHg 41%
21:00 +19°C° 0 mm 6 m/s 752 mmHg 45%
22:00 +17°C° 0 mm 7 m/s 752 mmHg 49%
23:00 +17°C° 0 mm 6 m/s 752 mmHg 53%

20 Abril, Terça-feira

Tempo Temperatura Precipitação Vento Pressão Humidade
00:00 +16°C° 0 mm 6 m/s 752 mmHg 56%
01:00 +16°C° 0 mm 6 m/s 752 mmHg 60%
02:00 +15°C° 0 mm 5 m/s 752 mmHg 61%
03:00 +15°C° 0 mm 4 m/s 752 mmHg 63%
04:00 +15°C° 0 mm 4 m/s 752 mmHg 64%
05:00 +14°C° 0 mm 5 m/s 753 mmHg 66%
06:00 +13°C° 0 mm 6 m/s 753 mmHg 67%
07:00 +11°C° 0 mm 7 m/s 754 mmHg 69%
08:00 +11°C° 0 mm 7 m/s 754 mmHg 61%
09:00 +11°C° 0 mm 8 m/s 754 mmHg 53%
10:00 +11°C° 0 mm 8 m/s 755 mmHg 45%
11:00 +12°C° 0 mm 8 m/s 755 mmHg 40%
12:00 +13°C° 0 mm 8 m/s 755 mmHg 35%
13:00 +15°C° 0 mm 8 m/s 755 mmHg 30%
14:00 +15°C° 0 mm 9 m/s 755 mmHg 27%
15:00 +15°C° 0 mm 9 m/s 755 mmHg 24%
16:00 +15°C° 0 mm 9 m/s 755 mmHg 21%
17:00 +13°C° 0 mm 9 m/s 756 mmHg 19%
18:00 +12°C° 0 mm 8 m/s 756 mmHg 17%
19:00 +11°C° 0 mm 8 m/s 757 mmHg 16%
20:00 +10°C° 0 mm 8 m/s 757 mmHg 17%
21:00 +8°C° 0 mm 9 m/s 757 mmHg 18%
22:00 +8°C° 0 mm 9 m/s 757 mmHg 19%
23:00 +7°C° 0 mm 9 m/s 758 mmHg 20%

21 Abril, Quarta-feira

Tempo Temperatura Precipitação Vento Pressão Humidade
00:00 +6°C° 0 mm 9 m/s 758 mmHg 22%
01:00 +5°C° 0 mm 9 m/s 758 mmHg 24%
02:00 +5°C° 0 mm 8 m/s 759 mmHg 27%
03:00 +4°C° 0 mm 8 m/s 759 mmHg 29%
04:00 +2°C° 0 mm 8 m/s 759 mmHg 31%
05:00 +2°C° 0 mm 8 m/s 760 mmHg 31%
06:00 +3°C° 0 mm 9 m/s 760 mmHg 32%
07:00 +3°C° 0 mm 9 m/s 761 mmHg 32%
08:00 +5°C° 0 mm 9 m/s 761 mmHg 27%
09:00 +7°C° 0 mm 10 m/s 761 mmHg 22%
10:00 +8°C° 0 mm 10 m/s 761 mmHg 17%
11:00 +9°C° 0 mm 10 m/s 761 mmHg 15%
12:00 +11°C° 0 mm 10 m/s 761 mmHg 13%
13:00 +12°C° 0 mm 9 m/s 761 mmHg 10%
14:00 +12°C° 0 mm 9 m/s 761 mmHg 10%
15:00 +13°C° 0 mm 9 m/s 761 mmHg 9%
16:00 +13°C° 0 mm 9 m/s 761 mmHg 9%
17:00 +12°C° 0 mm 8 m/s 761 mmHg 10%
18:00 +11°C° 0 mm 7 m/s 762 mmHg 11%
19:00 +11°C° 0 mm 7 m/s 762 mmHg 12%
20:00 +10°C° 0 mm 6 m/s 762 mmHg 14%
21:00 +9°C° 0 mm 5 m/s 762 mmHg 16%
22:00 +9°C° 0 mm 5 m/s 763 mmHg 17%
23:00 +8°C° 0 mm 5 m/s 763 mmHg 19%

22 Abril, Quinta-feira

Tempo Temperatura Precipitação Vento Pressão Humidade
00:00 +7°C° 0 mm 5 m/s 763 mmHg 21%
01:00 +7°C° 0 mm 5 m/s 763 mmHg 23%
02:00 +7°C° 0 mm 5 m/s 763 mmHg 25%
03:00 +6°C° 0 mm 5 m/s 763 mmHg 27%
04:00 +5°C° 0 mm 6 m/s 763 mmHg 29%
05:00 +7°C° 0 mm 6 m/s 764 mmHg 28%
06:00 +8°C° 0 mm 7 m/s 764 mmHg 28%
07:00 +9°C° 0 mm 7 m/s 764 mmHg 28%
08:00 +10°C° 0 mm 8 m/s 764 mmHg 25%
09:00 +12°C° 0 mm 8 m/s 764 mmHg 22%
10:00 +15°C° 0 mm 8 m/s 764 mmHg 20%
11:00 +16°C° 0 mm 8 m/s 764 mmHg 19%
12:00 +16°C° 0 mm 8 m/s 764 mmHg 18%
13:00 +17°C° 0 mm 8 m/s 764 mmHg 17%
14:00 +18°C° 0 mm 8 m/s 763 mmHg 17%
15:00 +18°C° 0 mm 7 m/s 763 mmHg 17%
16:00 +18°C° 0 mm 7 m/s 763 mmHg 17%
17:00 +17°C° 0 mm 7 m/s 763 mmHg 19%
18:00 +16°C° 0 mm 7 m/s 763 mmHg 20%
19:00 +15°C° 0 mm 6 m/s 763 mmHg 22%
20:00 +15°C° 0 mm 6 m/s 763 mmHg 24%
21:00 +14°C° 0 mm 6 m/s 763 mmHg 26%
22:00 +13°C° 0 mm 5 m/s 763 mmHg 28%
23:00 +13°C° 0 mm 5 m/s 762 mmHg 31%
Mostrar mais

Necessitamos do seu Consentimento

A Meteoprog e os seus Fornecedores de Serviços podem armazenar e aceder a dados pessoais como cookies, identificadores do dispositivo ou outras tecnologias semelhantes existentes no seu dispositivo e processar estes dados para personalizar conteúdos e anúncios, assim como funcionalidades nas redes sociais e análise de tráfego.

  • Armazenar e/ou aceder a informações no seu dispositivo

    Os cookies, identificadores do dispositivo ou outras informações podem ser armazenados ou acedidos no seu dispositivo, para os fins acima indicados.

  • Anúncios e conteúdos personalizados, medição de anúncios e conteúdos, dados sobre o público-alvo e desenvolvimento de produtos

    Os anúncios e os conteúdos podem ser personalizados com base num perfil. Podem ser adicionados dados adicionais para uma maior personalização dos anúncios e dos conteúdos. A eficácia dos anúncios e dos conteúdos pode ser medida. Podem ser obtidas informações sobre o público que visualizou os anúncios e os conteúdos. Estes dados podem ser usados para desenvolver ou melhorar sistemas, softwares ou a experiência do utilizador.

Ao clicar em "Eu concordo”, permitirá o uso de cookies, identificadores do dispositivo e web beacons mencionados ou outras tecnologias semelhantes. As configurações do navegador do seu dispositivo podem ser alteradas.

Para certos fins, podem ser invocados interesses legítimos ao invés de consentimento. Pode ler mais informação sobre este assunto na nossa Política de Privacidade e Cookies.